Latest Weather Observations for Hay Airport

IDN60801

Issued at 6:33 pm EDT Friday 19 December 2014 (issued every 30 minutes, with the page automatically refreshed every 10 minutes)

About weather observations | Map of weather stations | Latest weather observations for NSW | Other Formats
Station Details ID: 075019 Name: HAY AIRPORT AWS Lat: -34.54 Lon: 144.83 Height: 92.0 m
Data from the previous 72 hours. | See also: Recent months for locations in New South Wales
Date/Time
EDT
Temp
°C
App
Temp
°C
Dew
Point
Rel
Hum
%
Delta-T
°C
Wind Press
QNH
hPa
Press
MSL
hPa
Rain
since 9 am
mm
Dir
 
Spd
km/h
Gust
km/h
Spd
kts
Gust
kts
19/06:30pm 25.9 18.3 -1.8 16 12.5 SW 28 43 15 23 1015.5 1015.1 0.0
19/06:00pm 25.8 19.6 -2.8 15 12.6 SW 20 33 11 18 1015.2 1014.8 0.0
19/05:30pm 26.0 19.4 -3.5 14 12.9 SW 22 37 12 20 1015.2 1014.8 0.0
19/05:00pm 26.2 19.6 -3.4 14 13.0 SSW 22 35 12 19 1015.4 1015.0 0.0
19/04:30pm 25.1 18.2 -2.5 16 12.2 SW 24 39 13 21 1015.4 1015.0 0.0
19/04:00pm 25.2 18.5 -0.8 18 11.8 SSW 24 37 13 20 1015.6 1015.2 0.0
19/03:30pm 25.6 19.7 -0.5 18 12.0 SW 20 35 11 19 1015.8 1015.4 0.0
19/03:00pm 24.8 18.6 -0.4 19 11.5 SW 22 35 12 19 1016.0 1015.6 0.0
19/02:30pm 24.3 18.1 -0.1 20 11.2 SW 22 39 12 21 1016.2 1015.8 0.0
19/02:00pm 24.0 17.9 0.4 21 10.9 WSW 22 33 12 18 1016.4 1016.0 0.0
19/01:30pm 22.9 16.2 1.3 24 10.1 SW 26 35 14 19 1016.8 1016.4 0.0
19/01:00pm 22.5 16.7 2.1 26 9.6 SW 22 35 12 19 1017.0 1016.6 0.0
19/12:30pm 22.0 16.5 1.6 26 9.5 SSW 20 32 11 17 1017.1 1016.7 0.0
19/12:00pm 21.5 15.2 1.7 27 9.2 WSW 24 35 13 19 1017.2 1016.8 0.0
19/11:30am 20.4 14.1 1.8 29 8.6 SW 24 37 13 20 1017.3 1016.9 0.0
19/11:00am 19.6 13.7 2.0 31 8.1 SSW 22 30 12 16 1017.3 1016.9 0.0
19/10:30am 19.6 13.5 2.5 32 7.9 SSW 24 35 13 19 1017.3 1016.9 0.0
19/10:00am 19.0 13.0 3.2 35 7.4 SSW 24 37 13 20 1017.3 1016.9 0.0
19/09:30am 17.8 11.3 2.9 37 6.9 S 26 33 14 18 1017.3 1016.9 0.0
19/09:00am 17.5 11.7 4.5 42 6.2 S 24 33 13 18 1017.5 1017.1 0.0
19/08:30am 16.7 10.1 4.4 44 5.8 SSW 28 37 15 20 1017.1 1016.7 0.0
19/08:00am 15.8 9.3 4.8 48 5.2 SSW 28 37 15 20 1016.9 1016.5 0.0
19/07:30am 14.9 9.4 6.0 55 4.3 SSW 24 30 13 16 1016.6 1016.2 0.0
19/07:00am 13.8 9.6 5.7 58 3.8 SSW 17 20 9 11 1016.1 1015.7 0.0
19/06:30am 12.7 8.8 5.4 61 3.4 SSW 15 17 8 9 1015.5 1015.1 0.0
19/06:00am 12.6 8.7 5.3 61 3.4 SSW 15 17 8 9 1015.2 1014.8 0.0
19/05:30am 13.3 9.1 5.5 59 3.7 SSW 17 20 9 11 1014.9 1014.5 0.0
19/05:00am 13.8 9.3 5.9 59 3.8 SSW 19 20 10 11 1014.6 1014.2 0.0
19/04:30am 14.0 9.8 5.6 57 4.0 SSW 17 20 9 11 1014.1 1013.7 0.0
19/04:00am 14.7 10.5 5.5 54 4.4 SSW 17 20 9 11 1013.8 1013.4 0.0
19/03:30am 15.3 10.6 6.1 54 4.5 SSW 20 28 11 15 1013.6 1013.2 0.0
19/03:00am 16.2 11.4 7.4 56 4.4 S 22 30 12 16 1013.4 1013.0 0.0
19/02:30am 16.8 12.0 7.4 54 4.7 SSW 22 32 12 17 1013.3 1012.9 0.0
19/02:00am 17.6 12.1 1.6 34 7.2 SW 20 24 11 13 1013.0 1012.6 0.0
19/01:30am 18.7 11.7 1.7 32 7.7 SW 28 35 15 19 1013.0 1012.6 0.0
19/01:00am 19.4 13.2 4.3 37 7.3 SW 26 39 14 21 1013.0 1012.6 0.0
19/12:30am 19.9 14.6 5.2 38 7.2 SW 22 32 12 17 1012.8 1012.4 0.0
19/12:00am 20.4 15.5 5.2 37 7.5 SW 20 30 11 16 1012.7 1012.3 0.0
 
Date/Time
EDT
Temp
°C
App
Temp
°C
Dew
Point
Rel
Hum
%
Delta-T
°C
Wind Press
QNH
hPa
Press
MSL
hPa
Rain
since 9 am
mm
Dir
 
Spd
km/h
Gust
km/h
Spd
kts
Gust
kts
18/11:30pm 20.7 15.0 5.1 36 7.7 SW 24 32 13 17 1012.6 1012.2 0.0
18/11:00pm 21.2 14.5 5.5 36 7.8 SW 30 41 16 22 1012.5 1012.1 0.0
18/10:30pm 21.3 14.3 6.0 37 7.7 SW 32 43 17 23 1012.3 1011.9 0.0
18/10:00pm 21.8 14.1 6.9 38 7.7 SW 37 54 20 29 1011.9 1011.5 0.0
18/09:30pm 22.5 13.9 6.7 36 8.1 SW 41 56 22 30 1011.3 1010.9 0.0
18/09:07pm 23.6 15.2 5.5 31 9.2 SW 39 59 21 32 1010.8 1010.5 0.0
18/09:00pm 23.9 15.8 5.3 30 9.4 SW 37 48 20 26 1010.6 1010.3 0.0
18/08:30pm 25.0 17.4 3.0 24 10.7 WSW 32 44 17 24 1010.0 1009.6 0.0
18/08:00pm 25.5 17.3 2.9 23 11.1 WSW 35 44 19 24 1009.6 1009.2 0.0
18/07:37pm 26.7 19.3 1.9 20 12.0 WSW 30 50 16 27 1009.1 1008.7 0.0
18/07:30pm 26.6 18.8 1.8 20 12.0 WSW 32 41 17 22 1009.0 1008.6 0.0
18/07:00pm 27.2 17.8 2.3 20 12.2 WSW 41 54 22 29 1008.6 1008.2 0.0
18/06:30pm 28.1 18.7 2.3 19 12.7 WSW 41 56 22 30 1008.1 1007.7 0.0
18/06:00pm 28.6 19.4 3.5 20 12.7 WSW 41 56 22 30 1007.4 1007.0 0.0
18/05:34pm 29.0 19.5 3.8 20 12.8 WSW 43 61 23 33 1007.2 1006.8 0.0
18/05:30pm 29.4 19.8 3.4 19 13.2 WSW 43 59 23 32 1007.2 1006.8 0.0
18/05:04pm 30.2 22.3 2.5 17 13.9 WSW 33 54 18 29 1006.8 1006.4 0.0
18/05:00pm 30.7 23.1 2.9 17 14.1 WSW 32 46 17 25 1006.9 1006.5 0.0
18/04:41pm 30.3 22.6 2.5 17 13.9 W 32 50 17 27 1006.8 1006.4 0.0
18/04:30pm 30.2 21.4 1.6 16 14.1 WSW 37 54 20 29 1006.8 1006.4 0.0
18/04:24pm 30.2 22.3 2.5 17 13.9 W 33 52 18 28 1006.8 1006.4 0.0
18/04:00pm 30.7 22.2 1.1 15 14.6 W 35 48 19 26 1006.6 1006.2 0.0
18/03:46pm 30.1 21.6 0.6 15 14.3 W 35 52 19 28 1006.8 1006.4 0.0
18/03:41pm 30.4 21.5 0.9 15 14.4 W 37 52 20 28 1006.8 1006.4 0.0
18/03:35pm 30.6 22.1 1.0 15 14.5 W 35 52 19 28 1006.8 1006.4 0.0
18/03:30pm 30.3 22.2 0.8 15 14.4 WNW 33 48 18 26 1006.9 1006.5 0.0
18/03:00pm 30.6 21.2 0.1 14 14.7 WNW 39 59 21 32 1006.9 1006.5 0.0
18/02:56pm 31.3 21.6 0.6 14 15.0 WNW 41 59 22 32 1006.9 1006.5 0.0
18/02:45pm 30.2 20.9 0.7 15 14.3 W 39 59 21 32 1006.9 1006.5 0.0
18/02:30pm 30.6 21.6 0.1 14 14.7 W 37 57 20 31 1007.0 1006.6 0.0
18/02:04pm 29.8 21.2 0.4 15 14.2 W 35 54 19 29 1007.1 1006.7 0.0
18/02:00pm 29.8 20.5 0.4 15 14.2 W 39 54 21 29 1007.2 1006.8 0.0
18/01:31pm 30.2 21.2 -0.2 14 14.5 W 37 56 20 30 1007.4 1007.0 0.0
18/01:30pm 30.2 21.3 0.7 15 14.3 W 37 52 20 28 1007.4 1007.0 0.0
18/01:26pm 29.5 20.5 0.2 15 14.0 W 37 52 20 28 1007.4 1007.0 0.0
18/01:21pm 30.4 21.8 -0.1 14 14.6 W 35 50 19 27 1007.4 1007.0 0.0
18/01:17pm 30.0 21.7 -0.4 14 14.5 W 33 50 18 27 1007.5 1007.1 0.0
18/01:14pm 30.5 21.9 0.0 14 14.7 W 35 50 19 27 1007.4 1007.0 0.0
18/01:00pm 30.1 21.8 -0.3 14 14.5 W 33 46 18 25 1007.6 1007.2 0.0
18/12:39pm 30.0 22.3 -0.4 14 14.5 W 30 52 16 28 1007.8 1007.4 0.0
18/12:30pm 29.2 21.4 -1.0 14 14.1 W 30 43 16 23 1007.9 1007.5 0.0
18/12:00pm 29.2 21.0 -1.0 14 14.2 W 32 59 17 32 1007.7 1007.3 0.0
18/11:52am 28.9 20.7 -1.2 14 14.0 W 32 50 17 27 1007.8 1007.4 0.0
18/11:43am 28.7 20.1 -2.4 13 14.2 W 33 52 18 28 1007.8 1007.4 0.0
18/11:36am 29.0 21.5 -1.2 14 14.1 WNW 28 46 15 25 1007.9 1007.5 0.0
18/11:30am 28.9 20.9 -2.3 13 14.2 WNW 30 46 16 25 1008.0 1007.6 0.0
18/11:00am 27.8 20.2 -2.1 14 13.6 W 28 41 15 22 1008.1 1007.7 0.0
18/10:30am 27.8 21.9 -2.1 14 13.6 NW 19 26 10 14 1008.1 1007.7 0.0
18/10:00am 26.9 21.3 -2.8 14 13.3 NW 17 24 9 13 1008.0 1007.6 0.0
18/09:30am 25.8 20.6 -2.8 15 12.6 NNW 15 22 8 12 1008.1 1007.7 0.0
18/09:00am 24.6 19.5 -2.0 17 11.8 N 15 19 8 10 1008.2 1007.8 0.0
18/08:30am 24.1 18.8 -0.9 19 11.3 NNE 17 20 9 11 1008.1 1007.7 0.0
18/08:00am 22.3 17.8 -0.4 22 10.2 NNE 13 17 7 9 1007.9 1007.5 0.0
18/07:30am 20.8 16.7 -0.5 24 9.4 NNE 11 13 6 7 1007.6 1007.2 0.0
18/07:00am 17.7 14.7 1.7 34 7.2 NNE 7 9 4 5 1007.2 1006.8 0.0
18/06:30am 12.6 8.8 -0.6 40 5.4 NE 9 13 5 7 1007.0 1006.6 0.0
18/06:00am 11.6 7.7 -1.2 41 5.1 NE 9 9 5 5 1007.1 1006.7 0.0
18/05:30am 11.5 7.7 -0.9 42 5.0 NE 9 9 5 5 1006.9 1006.5 0.0
18/05:00am 11.5 8.5 -2.0 39 5.3 NE 4 6 2 3 1006.5 1006.1 0.0
18/04:30am 12.4 10.2 -1.9 37 5.7 CALM 0 7 0 4 1006.2 1005.8 0.0
18/04:00am 13.4 11.2 -1.3 36 6.0 CALM 0 0 0 0 1006.2 1005.8 0.0
18/03:30am 14.4 12.3 -0.8 35 6.3 CALM 0 0 0 0 1006.4 1006.0 0.0
18/03:00am 14.1 10.8 -1.5 34 6.4 WSW 6 7 3 4 1006.3 1005.9 0.0
18/02:30am 13.9 10.5 -1.7 34 6.3 W 6 7 3 4 1006.4 1006.0 0.0
18/02:00am 14.6 12.3 -2.3 31 6.8 CALM 0 0 0 0 1006.5 1006.1 0.0
18/01:30am 15.1 12.9 -1.9 31 6.9 CALM 0 0 0 0 1006.5 1006.1 0.0
18/01:00am 16.0 13.8 -1.5 30 7.3 CALM 0 0 0 0 1006.5 1006.1 0.0
18/12:30am 15.5 13.2 -2.0 30 7.1 CALM 0 0 0 0 1006.9 1006.5 0.0
18/12:00am 16.5 14.2 -2.0 28 7.7 CALM 0 0 0 0 1006.9 1006.5 0.0
 
Date/Time
EDT
Temp
°C
App
Temp
°C
Dew
Point
Rel
Hum
%
Delta-T
°C
Wind Press
QNH
hPa
Press
MSL
hPa
Rain
since 9 am
mm
Dir
 
Spd
km/h
Gust
km/h
Spd
kts
Gust
kts
17/11:30pm 17.5 14.0 -2.7 25 8.3 SW 6 9 3 5 1006.8 1006.4 0.0
17/11:00pm 19.5 16.0 -1.6 24 9.1 SW 7 9 4 5 1006.8 1006.4 0.0
17/10:30pm 19.1 16.8 -2.5 23 9.0 CALM 0 0 0 0 1006.8 1006.4 0.0
17/10:00pm 20.3 16.8 -2.7 21 9.7 SW 6 7 3 4 1006.8 1006.4 0.0
17/09:30pm 21.8 17.8 -2.1 20 10.3 WSW 9 13 5 7 1006.9 1006.5 0.0
17/09:00pm 23.0 18.6 -2.6 18 11.1 WSW 11 11 6 6 1007.0 1006.6 0.0
17/08:30pm 24.7 19.9 -2.8 16 12.0 W 13 15 7 8 1006.9 1006.5 0.0
17/08:00pm 25.4 21.0 -2.2 16 12.3 WSW 11 17 6 9 1006.7 1006.3 0.0
17/07:30pm 25.2 20.7 -3.2 15 12.4 SW 11 20 6 11 1006.5 1006.1 0.0
17/07:00pm 26.4 21.9 -3.2 14 13.1 W 11 19 6 10 1006.1 1005.7 0.0
17/06:30pm 26.7 21.8 -3.0 14 13.2 W 13 20 7 11 1005.8 1005.4 0.0
17/06:00pm 26.3 21.8 -3.3 14 13.0 WSW 11 20 6 11 1005.7 1005.3 0.0
17/05:30pm 25.6 20.0 -2.9 15 12.5 W 17 28 9 15 1005.7 1005.3 0.0
17/05:00pm 26.4 23.0 -2.3 15 12.9 WSW 6 17 3 9 1006.0 1005.6 0.0
17/04:30pm 25.9 21.1 -2.7 15 12.7 SSW 13 24 7 13 1006.4 1006.0 0.0
17/04:00pm 25.6 21.4 -1.2 17 12.2 SSW 11 20 6 11 1006.7 1006.3 0.0
17/03:30pm 25.1 19.9 -2.5 16 12.2 WNW 15 20 8 11 1007.0 1006.6 0.0
17/03:00pm 24.9 19.9 -1.0 18 11.8 SSW 15 24 8 13 1007.4 1007.0 0.0
17/02:30pm 24.3 19.5 -2.3 17 11.7 SW 13 24 7 13 1007.7 1007.3 0.0
17/02:00pm 24.0 18.4 -2.5 17 11.6 WSW 17 30 9 16 1008.0 1007.6 0.0
17/01:30pm 23.6 19.3 -1.3 19 11.1 SW 11 19 6 10 1008.1 1007.7 0.0
17/01:00pm 21.9 17.6 -1.4 21 10.2 S 11 32 6 17 1008.4 1008.0 0.0
17/12:30pm 22.9 19.2 0.1 22 10.4 SSE 9 22 5 12 1008.7 1008.3 0.0
17/12:00pm 21.3 16.1 -0.1 24 9.6 SSW 17 26 9 14 1009.0 1008.6 0.0
17/11:30am 21.0 16.2 0.2 25 9.3 SW 15 28 8 15 1009.4 1009.0 0.0
17/11:00am 20.0 15.4 1.4 29 8.5 S 15 22 8 12 1009.5 1009.1 0.0
17/10:30am 19.3 15.2 2.2 32 7.9 S 13 26 7 14 1009.6 1009.2 0.0
17/10:00am 18.6 13.6 1.6 32 7.7 SSE 17 26 9 14 1009.6 1009.2 0.0
17/09:30am 18.0 13.1 1.9 34 7.3 S 17 26 9 14 1009.7 1009.3 0.0
17/09:00am 17.3 12.1 2.5 37 6.8 SSE 19 26 10 14 1009.6 1009.2 0.0
17/08:30am 16.8 11.5 3.1 40 6.3 S 20 28 11 15 1009.3 1008.9 0.0
17/08:00am 16.1 9.8 3.5 43 5.8 S 26 33 14 18 1008.7 1008.3 0.0
17/07:30am 14.9 8.9 3.1 45 5.3 S 24 32 13 17 1008.5 1008.1 0.0
17/07:00am 14.0 8.8 2.6 46 5.1 SSW 19 26 10 14 1008.3 1007.9 0.0
17/06:30am 12.2 7.6 1.8 49 4.5 SSW 15 17 8 9 1008.2 1007.8 0.0
17/06:00am 12.0 7.8 1.6 49 4.5 SSW 13 17 7 9 1007.8 1007.4 0.0
17/05:30am 12.7 8.2 2.0 48 4.6 SSW 15 17 8 9 1007.4 1007.0 0.0
17/05:00am 13.5 8.6 2.1 46 5.0 SW 17 24 9 13 1007.1 1006.7 0.0
17/04:30am 13.7 8.8 2.0 45 5.1 SSW 17 20 9 11 1006.8 1006.4 0.0
17/04:00am 13.8 9.6 1.5 43 5.3 SW 13 17 7 9 1006.6 1006.2 0.0
17/03:30am 14.8 9.4 1.3 40 5.9 SSW 19 26 10 14 1006.5 1006.1 0.0
17/03:00am 15.3 9.6 0.7 37 6.3 SW 20 24 11 13 1006.4 1006.0 0.0
17/02:30am 15.8 10.3 0.4 35 6.6 SW 19 26 10 14 1006.3 1005.9 0.0
17/02:00am 16.7 11.0 0.4 33 7.1 SW 20 30 11 16 1006.2 1005.8 0.0
17/01:30am 17.4 10.2 0.6 32 7.4 SSW 28 35 15 19 1006.1 1005.7 0.0
17/01:00am 18.0 9.1 0.6 31 7.7 SSW 37 50 20 27 1006.0 1005.6 0.0
17/12:56am 18.0 10.0 0.6 31 7.7 SSW 32 50 17 27 1006.0 1005.6 0.0
17/12:30am 18.6 9.4 1.2 31 7.8 SW 39 52 21 28 1005.8 1005.4 0.0
17/12:05am 19.0 10.6 1.5 31 7.9 SW 35 54 19 29 1005.6 1005.2 0.0
17/12:00am 19.2 10.5 1.7 31 8.0 SW 37 54 20 29 1005.6 1005.2 0.0
 
Date/Time
EDT
Temp
°C
App
Temp
°C
Dew
Point
Rel
Hum
%
Delta-T
°C
Wind Press
QNH
hPa
Press
MSL
hPa
Rain
since 9 am
mm
Dir
 
Spd
km/h
Gust
km/h
Spd
kts
Gust
kts
16/11:30pm 19.8 10.4 2.6 32 8.0 SW 41 56 22 30 1005.2 1004.8 0.0
16/11:00pm 20.3 10.6 3.1 32 8.2 SSW 43 57 23 31 1004.7 1004.3 0.0
16/10:42pm 21.0 12.3 4.1 33 8.2 SW 39 57 21 31 1004.5 1004.1 0.0
16/10:30pm 21.4 12.0 4.5 33 8.3 SW 43 56 23 30 1004.3 1003.9 0.0
16/10:00pm 22.5 12.6 5.0 32 8.8 SW 46 59 25 32 1003.4 1003.0 0.0
16/09:30pm 23.8 15.5 7.8 36 8.5 SW 41 59 22 32 1002.5 1002.1 0.0
16/09:00pm 24.6 15.9 8.5 36 8.7 SW 44 65 24 35 1001.8 1001.4 0.0
16/08:31pm 25.2 17.1 8.7 35 8.9 SW 41 59 22 32 1000.9 1000.5 0.0
16/08:30pm 25.3 16.8 8.7 35 9.0 SW 43 59 23 32 1000.9 1000.5 0.0
16/08:01pm 26.6 15.6 8.6 32 9.8 SW 56 74 30 40 999.8 999.4 0.0
16/08:00pm 26.6 15.3 8.1 31 10.0 SW 57 74 31 40 999.7 999.3 0.0
16/07:51pm 27.2 15.6 8.1 30 10.4 SW 59 78 32 42 999.3 998.9 0.0
16/07:30pm 32.3 20.1 2.4 15 15.2 WSW 56 78 30 42 997.9 997.5 0.0
16/07:00pm 35.1 23.5 -1.1 10 17.8 W 50 70 27 38 996.8 996.4 0.0
16/06:33pm 35.7 24.9 -0.6 10 17.9 W 46 65 25 35 996.2 995.8 0.0

Other Formats:

Comma delimited format used in spreadsheet applications
http://www.bom.gov.au/fwo/IDN60801/IDN60801.94702.axf

JavaScript Object Notation format (JSON) in row-major order
http://www.bom.gov.au/fwo/IDN60801/IDN60801.94702.json